TimeCST,TemperatureF,Dew PointF,Humidity,Sea Level PressureIn,VisibilityMPH,Wind Direction,Wind SpeedMPH,Gust SpeedMPH,PrecipitationIn,Events,Conditions,WindDirDegrees,DateUTC
12:15 AM,51.1,50.4,97,29.87,5.0,South,16.1,33.4,N/A,,Overcast,170,2013-11-06 06:15:00
12:35 AM,51.3,50.5,97,29.86,5.0,South,18.4,25.3,N/A,,Light Drizzle,180,2013-11-06 06:35:00
12:55 AM,51.8,50.9,97,29.85,5.0,South,17.3,23.0,N/A,,Overcast,170,2013-11-06 06:55:00
1:15 AM,51.8,50.5,95,29.84,7.0,South,17.3,25.3,N/A,,Overcast,170,2013-11-06 07:15:00
1:35 AM,52.0,50.4,94,29.83,10.0,South,18.4,27.6,N/A,,Overcast,180,2013-11-06 07:35:00
1:55 AM,52.0,50.4,94,29.82,5.0,South,17.3,24.2,N/A,,Drizzle,180,2013-11-06 07:55:00
2:15 AM,52.0,50.9,96,29.81,5.0,South,19.6,24.2,N/A,,Light Drizzle,180,2013-11-06 08:15:00
2:35 AM,52.0,51.1,97,29.80,7.0,South,18.4,-,0.01,,Overcast,180,2013-11-06 08:35:00
2:55 AM,52.2,51.4,97,29.79,7.0,South,17.3,-,0.01,,Overcast,190,2013-11-06 08:55:00
3:15 AM,52.3,51.8,98,29.78,5.0,South,17.3,23.0,N/A,,Overcast,180,2013-11-06 09:15:00
3:35 AM,52.5,52.2,99,29.78,4.0,South,16.1,21.9,N/A,,Overcast,190,2013-11-06 09:35:00
3:55 AM,52.7,52.3,99,29.77,3.0,South,15.0,-,N/A,Rain,Rain,190,2013-11-06 09:55:00
4:15 AM,52.7,52.7,100,29.76,4.0,South,17.3,-,0.01,Rain,Light Rain,180,2013-11-06 10:15:00
4:35 AM,52.7,52.7,100,29.75,7.0,South,17.3,24.2,0.01,Rain,Light Rain,170,2013-11-06 10:35:00
4:55 AM,52.7,52.7,100,29.75,7.0,South,16.1,20.7,0.03,Rain,Light Rain,180,2013-11-06 10:55:00
5:15 AM,52.9,52.9,100,29.75,5.0,South,15.0,-,0.03,Rain,Rain,180,2013-11-06 11:15:00
5:35 AM,52.9,52.9,100,29.73,7.0,South,15.0,-,0.04,Rain,Light Rain,180,2013-11-06 11:35:00
5:55 AM,52.9,52.9,100,29.73,10.0,South,13.8,-,0.04,,Overcast,180,2013-11-06 11:55:00
6:15 AM,53.2,53.2,100,29.73,10.0,South,16.1,20.7,N/A,,Overcast,190,2013-11-06 12:15:00
6:35 AM,53.6,53.6,100,29.72,7.0,South,15.0,-,0.01,Rain,Light Rain,190,2013-11-06 12:35:00
6:55 AM,53.6,53.6,100,29.70,7.0,South,15.0,-,0.02,Rain,Rain,180,2013-11-06 12:55:00
7:15 AM,48.7,46.8,93,29.73,10.0,West,9.2,18.4,N/A,Rain,Light Rain,280,2013-11-06 13:15:00
7:35 AM,45.1,44.6,98,29.74,3.0,WNW,10.4,16.1,0.02,Rain,Rain,300,2013-11-06 13:35:00
7:55 AM,43.9,43.7,99,29.76,2.5,WNW,8.1,-,0.02,,Drizzle,300,2013-11-06 13:55:00
8:15 AM,43.2,43.0,99,29.77,3.0,NW,9.2,16.1,N/A,,Heavy Drizzle,320,2013-11-06 14:15:00
8:35 AM,41.7,41.5,99,29.80,4.0,WNW,11.5,19.6,N/A,Rain,Rain,300,2013-11-06 14:35:00
8:55 AM,40.6,40.3,99,29.80,3.0,NNW,13.8,17.3,0.01,,Heavy Drizzle,330,2013-11-06 14:55:00
9:15 AM,39.2,39.2,100,29.82,3.0,NNW,9.2,17.3,0.02,Rain,Rain,330,2013-11-06 15:15:00
9:35 AM,38.5,38.1,99,29.83,4.0,NW,13.8,19.6,0.04,Rain,Rain,310,2013-11-06 15:35:00
9:55 AM,38.3,37.4,97,29.83,7.0,NW,12.7,19.6,0.07,Rain,Light Rain,320,2013-11-06 15:55:00
10:15 AM,38.5,37.2,95,29.83,10.0,NW,13.8,21.9,N/A,Rain,Light Rain,320,2013-11-06 16:15:00
10:35 AM,38.5,36.9,94,29.84,10.0,NW,12.7,17.3,N/A,Rain,Rain,320,2013-11-06 16:35:00
10:55 AM,38.5,36.3,92,29.86,10.0,NW,15.0,20.7,N/A,,Overcast,320,2013-11-06 16:55:00
11:15 AM,38.7,36.1,91,29.86,10.0,NW,15.0,23.0,N/A,,Overcast,320,2013-11-06 17:15:00
11:35 AM,39.0,36.3,90,29.87,10.0,NW,11.5,18.4,N/A,,Overcast,320,2013-11-06 17:35:00
11:55 AM,38.8,34.7,85,29.87,10.0,NW,13.8,23.0,N/A,,Overcast,320,2013-11-06 17:55:00
12:15 PM,39.2,35.1,85,29.87,10.0,NW,13.8,19.6,N/A,,Overcast,320,2013-11-06 18:15:00
12:35 PM,39.4,35.1,84,29.89,10.0,NW,13.8,-,N/A,,Overcast,320,2013-11-06 18:35:00
12:55 PM,39.7,35.1,83,29.90,10.0,NW,13.8,20.7,N/A,,Overcast,310,2013-11-06 18:55:00
1:15 PM,39.7,35.6,85,29.90,10.0,NW,11.5,20.7,N/A,,Overcast,310,2013-11-06 19:15:00
1:35 PM,39.7,35.2,84,29.91,10.0,WNW,10.4,17.3,N/A,,Overcast,300,2013-11-06 19:35:00
1:55 PM,40.8,34.9,79,29.92,10.0,WNW,9.2,17.3,N/A,,Overcast,300,2013-11-06 19:55:00
2:15 PM,41.0,34.3,77,29.93,10.0,WNW,11.5,16.1,N/A,,Overcast,300,2013-11-06 20:15:00
2:35 PM,41.0,32.5,72,29.95,10.0,WNW,12.7,19.6,N/A,,Overcast,300,2013-11-06 20:35:00
2:55 PM,41.4,33.1,72,29.96,10.0,WNW,8.1,16.1,N/A,,Overcast,300,2013-11-06 20:55:00
3:15 PM,41.4,32.9,72,29.97,10.0,WNW,9.2,-,N/A,,Overcast,300,2013-11-06 21:15:00
3:35 PM,41.5,32.5,70,29.98,10.0,WNW,5.8,-,N/A,,Overcast,290,2013-11-06 21:35:00
3:55 PM,41.9,32.2,68,29.99,10.0,WNW,9.2,19.6,N/A,,Overcast,290,2013-11-06 21:55:00
4:15 PM,41.2,30.7,66,30.00,10.0,WNW,9.2,16.1,N/A,,Overcast,290,2013-11-06 22:15:00
4:35 PM,41.0,30.9,67,30.01,10.0,West,6.9,-,N/A,,Overcast,280,2013-11-06 22:35:00
4:55 PM,40.5,31.1,69,30.02,10.0,WNW,8.1,-,N/A,,Overcast,290,2013-11-06 22:55:00
5:15 PM,39.4,30.0,69,30.04,10.0,West,6.9,-,N/A,,Scattered Clouds,280,2013-11-06 23:15:00
5:35 PM,38.7,28.4,67,30.04,10.0,West,5.8,-,N/A,,Clear,270,2013-11-06 23:35:00
5:55 PM,37.8,26.4,64,30.05,10.0,West,6.9,-,N/A,,Clear,280,2013-11-06 23:55:00
6:15 PM,37.4,24.8,60,30.06,10.0,West,6.9,-,N/A,,Clear,280,2013-11-07 00:15:00
6:35 PM,36.7,23.9,60,30.07,10.0,West,4.6,-,N/A,,Clear,270,2013-11-07 00:35:00
6:55 PM,35.8,25.3,66,30.08,10.0,West,4.6,-,N/A,,Clear,260,2013-11-07 00:55:00
7:15 PM,35.2,24.6,65,30.09,10.0,West,6.9,-,N/A,,Clear,280,2013-11-07 01:15:00
7:35 PM,35.1,23.0,61,30.09,10.0,WNW,5.8,-,N/A,,Clear,300,2013-11-07 01:35:00
7:55 PM,35.1,21.0,57,30.09,10.0,WNW,8.1,-,N/A,,Clear,290,2013-11-07 01:55:00
8:15 PM,34.2,21.4,60,30.10,10.0,WNW,8.1,-,N/A,,Clear,300,2013-11-07 02:15:00
8:35 PM,33.6,21.9,62,30.11,10.0,WNW,4.6,-,N/A,,Clear,290,2013-11-07 02:35:00
8:55 PM,33.1,21.7,63,30.11,10.0,WNW,3.5,-,N/A,,Clear,290,2013-11-07 02:55:00
9:15 PM,32.5,21.7,64,30.11,10.0,WNW,3.5,-,N/A,,Clear,300,2013-11-07 03:15:00
9:35 PM,32.4,21.6,64,30.12,10.0,West,4.6,-,N/A,,Clear,280,2013-11-07 03:35:00
9:55 PM,32.4,21.2,63,30.13,10.0,West,4.6,-,N/A,,Clear,280,2013-11-07 03:55:00
10:15 PM,32.0,21.6,65,30.13,10.0,West,4.6,-,N/A,,Clear,260,2013-11-07 04:15:00
10:35 PM,31.8,22.1,67,30.13,10.0,West,4.6,-,N/A,,Clear,260,2013-11-07 04:35:00
10:55 PM,31.1,22.1,69,30.13,10.0,WSW,6.9,-,N/A,,Clear,250,2013-11-07 04:55:00
11:15 PM,31.8,22.6,69,30.13,10.0,West,5.8,-,N/A,,Clear,260,2013-11-07 05:15:00
11:35 PM,32.0,22.8,69,30.14,10.0,West,5.8,-,N/A,,Clear,260,2013-11-07 05:35:00
11:55 PM,31.8,22.6,69,30.14,10.0,West,4.6,-,N/A,,Clear,260,2013-11-07 05:55:00